Location: Unspecified
(49.2170°N, 0.0000°E)
Time: 06:58:06
(UTC+00:00)

Transit 4A - Pass Details

Date: 25 June 2019
Orbit: 866 x 978 km, 66.8° (Epoch: 13 October)

Event Time Altitude Azimuth Distance (km) Brightness Sun altitude
Rises 16:40:54 0° 321° (NW) 3,686 11.5 30.7°
Reaches altitude 10° 16:43:35 10° 315° (NW) 2,728 11.1 30.2°
Maximum altitude 16:49:36 45° 245° (WSW) 1,289 10.1 29.2°
Drops below altitude 10° 16:55:28 10° 175° (S) 2,659 10.3 28.3°
Sets 16:58:03 0° 169° (S) 3,584 10.8 27.9°
